Tracking 22836 objects as of 18-Apr-2021
HD Live streaming from Space Station
objects crossing your sky now

DELTA 1 DEB

Track DELTA 1 DEB now!
10-day predictions


NORAD ID: 18645
Int'l Code: 1973-086GX
Perigee: 1,434.7 km
Apogee: 1,619.2 km
Inclination: 102.2 °
Period: 116.4 minutes
Semi major axis: 7897 km
RCS: 0.0222 m2 (small)
Launch date: November 6, 1973
Source: United States (US)
Launch site: AIR FORCE WESTERN TEST RANGE (AFWTR)

Note: This is SATELLITE DEBRIS
aabbcc
Your satellite tracking list
Your tracking list is empty




NASA's NSSDC Master Catalog

Two Line Element Set (TLE):
1 18645U 73086GX  21098.75133575  .00000188  00000-0  17792-2 0  9999
2 18645 102.1802 205.7684 0116764 303.6089 217.5851 12.36887513631245
Source of the keplerian elements: AFSPC